#timestamp,LO_Frequency,Hit,StdDev 
1593514815.2,286046997.0,N
1593514835.1,286046998.3,N
1593514836.0,286046998.3,N
1593514855.8,286046999.4,N
1593514875.7,286046998.8,N
1593514895.5,286046999.4,N
1593514915.3,286047000.5,N
1593514935.2,286047000.4,N
1593514955.0,286047000.7,N
1593514955.9,286047000.7,N
1593514975.7,286047002.8,N
1593514995.6,286047000.6,N
1593515015.4,286046998.3,N
1593515035.3,286046998.7,N
1593515055.1,286047000.7,N
1593515075.8,286047000.3,N
1593515095.7,286047000.1,N
1593515115.5,286047000.0,N
1593515135.4,286047002.3,N
1593515155.2,286047002.4,N
1593515175.0,286047002.3,N
1593515175.9,286047002.3,N
1593515195.8,286046999.7,N
1593515215.6,286047000.7,N
1593515235.4,286047000.8,N
1593515255.3,286047000.8,N
1593515275.1,286047001.2,N
1593515295.9,286046998.3,N
1593515315.7,286046998.1,N
1593515335.5,286046998.8,N
1593515355.4,286046998.7,N
1593515375.2,286046999.3,N
1593515395.1,286046997.1,N
1593515396.0,286046997.1,N
1593515415.8,286046998.7,N
1593515435.6,286046997.4,N
1593515455.5,286046996.7,N
1593515475.3,286046999.1,N
1593515495.2,286046997.0,N
1593515515.9,286046996.5,N
1593515535.7,286046999.3,N
1593515555.6,286046999.6,N
1593515575.4,286046999.0,N
1593515595.2,286046999.4,N
1593515615.1,286046999.4,N
1593515616.0,286046999.4,N
1593515635.8,286046999.3,N
1593515655.7,286046998.3,N
1593515675.5,286046999.2,N
1593515695.3,286046999.6,N
1593515715.2,286046999.6,N
1593515735.0,286046999.5,N
1593515735.9,286046999.5,N
1593515755.8,286046999.5,N
1593515775.6,286046999.6,N
1593515795.4,286046997.4,N
1593515815.3,286046994.9,Y
1593515835.1,286046998.6,P
1593515855.9,286046993.8,P
1593515875.7,286047002.0,N
1593515895.5,286047001.0,N
1593515915.4,286047000.8,N
1593515935.2,286047000.9,N
1593515955.0,286047002.3,N
1593515955.9,286047002.3,N
1593515975.8,286047000.6,N
1593515995.6,286046998.1,N
1593516015.5,286047000.3,N
1593516035.3,286047000.2,N
1593516055.1,286047000.4,N
1593516075.9,286046998.1,N
1593516095.7,286046998.9,N
1593516115.6,286046998.5,N
1593516135.4,286047001.2,N
1593516155.2,286046998.8,N
1593516175.1,286047000.7,N
1593516176.0,286047000.7,N
1593516195.8,286047000.6,N
1593516215.7,286046998.1,N
1593516235.5,286046998.9,N
1593516255.3,286046998.1,N
1593516275.2,286046999.3,N
1593516295.0,286046999.2,N
1593516295.9,286046999.2,N
1593516315.8,286046998.8,N
1593516335.6,286047000.7,N
1593516355.4,286047000.9,N
1593516375.3,286047001.0,N
1593516395.1,286046999.9,N
1593516415.8,286047002.3,N
1593516435.7,286047000.1,N
1593516455.5,286047002.2,N
1593516475.4,286047000.2,N
1593516495.2,286047001.6,N
1593516515.0,286047000.1,N
1593516515.9,286047000.1,N
1593516535.8,286047000.6,N
1593516555.6,286047001.0,N
1593516575.5,286047002.8,N
1593516595.3,286047000.7,N
1593516615.1,286047002.4,N
1593516635.9,286047000.0,N
1593516655.7,286047000.1,N
1593516675.5,286046999.8,N
1593516695.4,286047002.0,N
1593516715.2,286047002.7,N
1593516735.1,286047004.0,Y
1593516736.0,286047004.0,P
1593516755.8,286047004.8,N
1593516775.7,286047005.3,N
1593516795.5,286047001.6,N
1593516815.3,286047002.1,N
1593516835.2,286047001.3,N
1593516855.9,286047001.6,N
1593516875.7,286047002.0,N
1593516895.6,286047000.4,N
1593516915.4,286047001.2,N
1593516935.3,286047000.6,N
1593516955.1,286047001.1,N
1593516956.0,286047001.1,N
1593516975.8,286047001.0,N
1593516995.7,286046998.5,N
1593517015.5,286047002.7,N
1593517035.3,286047000.8,N
1593517055.2,286046998.4,N
1593517075.0,286046996.7,N
1593517075.9,286046996.7,N
1593517095.8,286046997.0,N
1593517115.6,286046996.5,N
1593517135.4,286046999.5,N
1593517155.3,286046996.7,N
1593517175.1,286046999.6,N
1593517195.8,286046995.3,N
1593517215.7,286046997.3,N
1593517235.5,286046996.6,N
1593517255.4,286047001.1,N
1593517275.2,286046998.4,N
1593517295.0,286046997.1,N
1593517295.9,286046997.1,N
1593517315.8,286046998.4,N
1593517335.6,286046996.6,N
1593517355.5,286046997.8,N
1593517375.3,286046995.0,N
1593517395.1,286046996.9,N
1593517415.9,286046997.6,N
1593517435.7,286046995.7,N
1593517455.5,286046995.3,N
1593517475.4,286046994.9,N
1593517495.2,286046997.8,N
1593517515.1,286046995.3,N
1593517516.0,286046995.3,N
1593517535.8,286046996.0,N
1593517555.6,286046997.6,N
1593517575.5,286046996.8,N
1593517595.3,286046999.4,N
1593517615.2,286046996.1,N
1593517635.9,286046996.4,N
1593517655.7,286046992.1,Y
1593517675.6,286046995.2,P
1593517695.4,286046999.5,N
1593517715.3,286047001.2,N
1593517735.1,286047002.5,N
1593517755.8,286046999.9,N
1593517775.7,286047000.7,N
1593517795.5,286046998.6,N
1593517815.4,286047000.7,N
1593517835.2,286046998.5,N
1593517855.0,286047000.5,N
1593517855.9,286047000.5,N
1593517875.8,286047000.1,N
1593517895.6,286047000.1,N
1593517915.4,286047001.9,N
1593517935.3,286047002.1,N
1593517955.1,286047002.2,N
1593517975.9,286047000.1,N
1593517995.7,286047000.5,N
1593518015.5,286047000.4,N
1593518035.4,286047001.2,N
1593518055.2,286047000.9,N
1593518075.1,286047000.7,N
1593518076.0,286047000.7,N
1593518095.8,286047001.2,N
1593518115.6,286047000.4,N
1593518135.5,286047000.7,N
1593518155.3,286046999.9,N
1593518175.1,286046999.9,N
1593518195.9,286047000.8,N
1593518215.7,286047002.0,N
1593518235.6,286047000.4,N
1593518255.4,286047000.2,N
1593518275.3,286047000.9,N
1593518295.1,286047004.1,Y
1593518296.0,286047004.1,P
1593518315.8,286047000.3,N
1593518335.7,286047002.2,N
1593518355.5,286047000.3,N
1593518375.3,286046999.9,N
1593518395.2,286047002.7,N
